IBE05ZK LEMD-LPMA

Flight info

Callsign IBE05ZK
Flight time N/A
Altitude 37000
Route CCS DCT ELVAR DCT NARTA DCT RAKUN RAKUN1P/05
Aircraft A320/M-SDE3FGHIRWY/LB1

Departure

Time N/A
Airport Adolfo Suárez Madrid–Barajas Airport (LEMD)

Arrival

Time 2026-05-06 15:45
Airport Cristiano Ronaldo International Airport (LPMA)
Time Latitude Longitude Altitude Speed Heading
2026-05-06 15:42 32.63669 -16.70448 3983 ft 256 kts 208°
2026-05-06 15:42 32.62212 -16.71687 3289 ft 255 kts 228°
2026-05-06 15:42 32.61249 -16.73401 2614 ft 253 kts 249°
2026-05-06 15:42 32.60858 -16.75366 2277 ft 238 kts 268°
2026-05-06 15:43 32.61002 -16.77251 2133 ft 224 kts 287°
2026-05-06 15:43 32.61644 -16.78878 1909 ft 219 kts 310°
2026-05-06 15:43 32.62829 -16.79988 1613 ft 216 kts 339°
2026-05-06 15:43 32.64189 -16.80360 1480 ft 192 kts 359°
2026-05-06 15:44 32.65470 -16.80362 1169 ft 176 kts
2026-05-06 15:44 32.66605 -16.80273 996 ft 156 kts 12°
2026-05-06 15:44 32.67612 -16.79842 624 ft 147 kts 26°
2026-05-06 15:44 32.68363 -16.79067 388 ft 137 kts 40°
2026-05-06 15:45 32.69052 -16.78304 229 ft 132 kts 40°
2026-05-06 15:45 32.69667 -16.77581 180 ft 113 kts 43°
2026-05-06 15:45 32.70067 -16.77121 176 ft 37 kts 45°
2026-05-06 15:45 32.70109 -16.77061 176 ft 5 kts 50°
2026-05-06 15:46 32.70088 -16.77112 176 ft 15 kts 192°
2026-05-06 15:46 32.69989 -16.77179 176 ft 17 kts 185°
2026-05-06 15:46 32.69900 -16.77181 176 ft 11 kts 181°
2026-05-06 15:46 32.69823 -16.77200 176 ft 12 kts 217°
2026-05-06 15:47 32.69769 -16.77265 176 ft 10 kts 226°
2026-05-06 15:47 32.69723 -16.77322 176 ft 9 kts 226°
2026-05-06 15:47 32.69683 -16.77371 176 ft 8 kts 226°
2026-05-06 15:47 32.69646 -16.77416 176 ft 7 kts 225°
2026-05-06 15:48 32.69609 -16.77455 176 ft 7 kts 196°
2026-05-06 15:48 32.69567 -16.77421 176 ft 8 kts 139°
2026-05-06 15:48 32.69539 -16.77392 176 ft 0 kts 138°